{"data":{"norad_id":66668,"intl_designator":"2025-276C","name":"SARI-1","alt_names":[],"object_type":"PAYLOAD","status":"ACTIVE","operator":null,"country":"SAUD","launch_date":"2025-11-28","launch_site_code":"AFWTR","launch_vehicle":null,"mission":null,"orbit_class":"UNKNOWN","rcs_meters":null,"size_class":null,"mass_kg":null,"dimensions":null,"purposes":[],"wikipedia_slug":null,"has_3d_model":false,"image_url":null,"decayed_at":null,"tle_current":{"epoch":"2026-09-20T11:35:42.823392Z","epoch_age_seconds":122467,"freshness":"FRESH","line1":"1 66668U 25276C   26263.48313453  .00025206  00000+0  79121-3 0  9991","line2":"2 66668  97.3957 337.3754 0005825  39.0627 321.1035 15.32995868 45069","mean_motion":15.32995868,"eccentricity":0.0005825,"inclination_deg":97.3957,"raan_deg":337.3754,"arg_perigee_deg":39.0627,"mean_anomaly_deg":321.1035,"bstar":0.00079121,"rev_number":4506,"period_min":93.933716982465,"perigee_km":462.89257927548,"apogee_km":470.8670238493,"semimajor_km":6845.0168015624,"source":"CELESTRAK","updated_at":"2026-09-21T09:00:16.119177Z"}}}